When you browse on this site, cookies collect data to enhance your experience and personalize the content and advertising you see.
Visit our Privacy Policy to learn more. By continuing to use the site, you agree to this use of cookies and data.
  • In Österreich
  • Länderverzeichnis
  • Für 7 Tage
  • Wassertemperatur
  • Wetterkarte
  • News
  • Widgets
  • user-avatar
    Anmelden

    Stündliche Wetter Barra

    Heute, 9 Dezember, Montag

    Zeit Temperatur Niederschläge Wind Luftdruck Luftfeuchtigkeit
    00:00 +23°C° 0 mm 2 m/S 749 mmHg 86%
    01:00 +23°C° 0 mm 2 m/S 749 mmHg 87%
    02:00 +23°C° 0 mm 2 m/S 749 mmHg 87%
    03:00 +23°C° 0 mm 2 m/S 749 mmHg 87%
    04:00 +23°C° 0 mm 2 m/S 749 mmHg 86%
    05:00 +24°C° 0 mm 2 m/S 749 mmHg 80%
    06:00 +26°C° 0 mm 3 m/S 749 mmHg 73%
    07:00 +27°C° 0 mm 3 m/S 750 mmHg 67%
    08:00 +28°C° 0 mm 3 m/S 750 mmHg 60%
    09:00 +30°C° 0 mm 3 m/S 750 mmHg 53%
    10:00 +32°C° 0 mm 4 m/S 750 mmHg 47%
    11:00 +32°C° 0 mm 4 m/S 750 mmHg 47%
    12:00 +32°C° 0 mm 5 m/S 749 mmHg 47%
    13:00 +33°C° 0 mm 5 m/S 749 mmHg 47%
    14:00 +32°C° 0 mm 5 m/S 749 mmHg 49%
    15:00 +32°C° 0 mm 5 m/S 749 mmHg 51%
    16:00 +30°C° 0 mm 4 m/S 748 mmHg 56%
    17:00 +29°C° 0 mm 4 m/S 749 mmHg 64%
    18:00 +27°C° 0 mm 4 m/S 749 mmHg 72%
    19:00 +26°C° 0 mm 4 m/S 749 mmHg 80%
    20:00 +25°C° 0 mm 4 m/S 749 mmHg 84%
    21:00 +25°C° 0 mm 4 m/S 750 mmHg 87%
    22:00 +23°C° 0 mm 4 m/S 750 mmHg 90%
    23:00 +23°C° 0.1 mm 4 m/S 749 mmHg 89%

    Morgen, 10 Dezember, Dienstag

    Zeit Temperatur Niederschläge Wind Luftdruck Luftfeuchtigkeit
    00:00 +25°C° 0.1 mm 4 m/S 749 mmHg 89%
    01:00 +25°C° 0.1 mm 4 m/S 748 mmHg 89%
    02:00 +25°C° 0.5 mm 4 m/S 748 mmHg 90%
    03:00 +25°C° 0.5 mm 4 m/S 748 mmHg 91%
    04:00 +25°C° 0.5 mm 4 m/S 747 mmHg 92%
    05:00 +25°C° 0.8 mm 5 m/S 748 mmHg 91%
    06:00 +25°C° 0.8 mm 5 m/S 748 mmHg 90%
    07:00 +26°C° 0.8 mm 5 m/S 748 mmHg 88%
    08:00 +26°C° 1.3 mm 5 m/S 748 mmHg 87%
    09:00 +26°C° 1.3 mm 5 m/S 748 mmHg 86%
    10:00 +27°C° 1.3 mm 5 m/S 748 mmHg 85%
    11:00 +27°C° 2.2 mm 5 m/S 748 mmHg 83%
    12:00 +28°C° 2.2 mm 5 m/S 748 mmHg 80%
    13:00 +29°C° 2.2 mm 5 m/S 747 mmHg 77%
    14:00 +29°C° 2 mm 5 m/S 747 mmHg 78%
    15:00 +29°C° 2 mm 5 m/S 747 mmHg 79%
    16:00 +29°C° 2 mm 5 m/S 746 mmHg 79%
    17:00 +28°C° 1.1 mm 5 m/S 746 mmHg 83%
    18:00 +27°C° 1.1 mm 4 m/S 747 mmHg 87%
    19:00 +26°C° 1.1 mm 4 m/S 747 mmHg 91%
    20:00 +26°C° 0.7 mm 4 m/S 747 mmHg 92%
    21:00 +26°C° 0.7 mm 4 m/S 748 mmHg 92%
    22:00 +25°C° 0.7 mm 3 m/S 748 mmHg 93%
    23:00 +25°C° 0.7 mm 3 m/S 747 mmHg 93%

    übermorgen, 11 Dezember, Mittwoch

    Zeit Temperatur Niederschläge Wind Luftdruck Luftfeuchtigkeit
    00:00 +25°C° 0.7 mm 3 m/S 747 mmHg 93%
    01:00 +25°C° 0.7 mm 3 m/S 747 mmHg 94%
    02:00 +25°C° 0.5 mm 3 m/S 746 mmHg 94%
    03:00 +25°C° 0.5 mm 3 m/S 746 mmHg 94%
    04:00 +25°C° 0.5 mm 3 m/S 746 mmHg 94%
    05:00 +25°C° 0.5 mm 3 m/S 746 mmHg 92%
    06:00 +26°C° 0.5 mm 3 m/S 747 mmHg 90%
    07:00 +26°C° 0.5 mm 4 m/S 747 mmHg 89%
    08:00 +27°C° 0.5 mm 4 m/S 747 mmHg 85%
    09:00 +28°C° 0.5 mm 5 m/S 747 mmHg 82%
    10:00 +29°C° 0.5 mm 5 m/S 747 mmHg 78%
    11:00 +29°C° 0.5 mm 5 m/S 747 mmHg 76%
    12:00 +30°C° 0.5 mm 5 m/S 746 mmHg 74%
    13:00 +30°C° 0.5 mm 5 m/S 745 mmHg 72%
    14:00 +30°C° 0.6 mm 4 m/S 745 mmHg 73%
    15:00 +30°C° 0.6 mm 4 m/S 745 mmHg 73%
    16:00 +30°C° 0.6 mm 4 m/S 745 mmHg 74%
    17:00 +29°C° 0 mm 3 m/S 745 mmHg 78%
    18:00 +27°C° 0 mm 3 m/S 745 mmHg 81%
    19:00 +26°C° 0 mm 3 m/S 746 mmHg 85%
    20:00 +26°C° 0 mm 3 m/S 746 mmHg 87%
    21:00 +26°C° 0 mm 3 m/S 747 mmHg 89%
    22:00 +25°C° 0 mm 3 m/S 747 mmHg 91%
    23:00 +25°C° 0.1 mm 3 m/S 747 mmHg 91%

    12 Dezember, Donnerstag

    Zeit Temperatur Niederschläge Wind Luftdruck Luftfeuchtigkeit
    00:00 +25°C° 0.1 mm 3 m/S 746 mmHg 92%
    01:00 +25°C° 0.1 mm 3 m/S 746 mmHg 93%
    02:00 +25°C° 0.1 mm 3 m/S 746 mmHg 93%
    03:00 +25°C° 0.1 mm 3 m/S 745 mmHg 94%
    04:00 +24°C° 0.1 mm 3 m/S 745 mmHg 94%
    05:00 +25°C° 0.1 mm 3 m/S 745 mmHg 92%
    06:00 +26°C° 0.1 mm 3 m/S 746 mmHg 89%
    07:00 +27°C° 0.1 mm 3 m/S 746 mmHg 87%
    08:00 +28°C° 0 mm 3 m/S 746 mmHg 78%
    09:00 +30°C° 0 mm 3 m/S 746 mmHg 69%
    10:00 +32°C° 0 mm 4 m/S 746 mmHg 61%
    11:00 +33°C° 0 mm 4 m/S 746 mmHg 56%
    12:00 +33°C° 0 mm 4 m/S 745 mmHg 52%
    13:00 +34°C° 0 mm 5 m/S 745 mmHg 48%
    14:00 +33°C° 0 mm 4 m/S 745 mmHg 48%
    15:00 +33°C° 0 mm 4 m/S 745 mmHg 48%
    16:00 +32°C° 0 mm 4 m/S 744 mmHg 47%
    17:00 +29°C° 0 mm 3 m/S 745 mmHg 56%
    18:00 +28°C° 0 mm 2 m/S 745 mmHg 64%
    19:00 +26°C° 0 mm 2 m/S 746 mmHg 72%
    20:00 +25°C° 0 mm 2 m/S 746 mmHg 74%
    21:00 +24°C° 0 mm 1 m/S 747 mmHg 77%
    22:00 +24°C° 0 mm 1 m/S 747 mmHg 80%
    23:00 +24°C° 0 mm 1 m/S 747 mmHg 81%

    13 Dezember, Freitag

    Zeit Temperatur Niederschläge Wind Luftdruck Luftfeuchtigkeit
    00:00 +24°C° 0 mm 1 m/S 746 mmHg 82%
    01:00 +23°C° 0 mm 1 m/S 746 mmHg 83%
    02:00 +23°C° 0 mm 1 m/S 746 mmHg 85%
    03:00 +23°C° 0 mm 1 m/S 746 mmHg 86%
    04:00 +22°C° 0 mm 1 m/S 746 mmHg 88%
    05:00 +23°C° 0 mm 1 m/S 746 mmHg 84%
    06:00 +24°C° 0 mm 1 m/S 746 mmHg 80%
    07:00 +25°C° 0 mm 1 m/S 746 mmHg 76%
    08:00 +28°C° 0 mm 1 m/S 746 mmHg 66%
    09:00 +30°C° 0 mm 1 m/S 746 mmHg 55%
    10:00 +32°C° 0 mm 1 m/S 746 mmHg 45%
    11:00 +34°C° 0 mm 2 m/S 746 mmHg 45%
    12:00 +34°C° 0 mm 2 m/S 745 mmHg 45%
    13:00 +34°C° 0 mm 3 m/S 745 mmHg 45%
    14:00 +34°C° 0 mm 3 m/S 744 mmHg 46%
    15:00 +33°C° 0 mm 3 m/S 744 mmHg 48%
    16:00 +33°C° 0 mm 3 m/S 743 mmHg 50%
    17:00 +30°C° 0 mm 3 m/S 744 mmHg 58%
    18:00 +28°C° 0 mm 2 m/S 744 mmHg 65%
    19:00 +26°C° 0 mm 2 m/S 745 mmHg 73%
    20:00 +25°C° 0 mm 2 m/S 745 mmHg 76%
    21:00 +25°C° 0 mm 1 m/S 746 mmHg 79%
    22:00 +24°C° 0 mm 1 m/S 746 mmHg 81%
    23:00 +24°C° 0 mm 1 m/S 746 mmHg 82%

    14 Dezember, Samstag

    Zeit Temperatur Niederschläge Wind Luftdruck Luftfeuchtigkeit
    00:00 +24°C° 0 mm 1 m/S 745 mmHg 83%
    01:00 +24°C° 0 mm 1 m/S 745 mmHg 85%
    02:00 +23°C° 0 mm 1 m/S 745 mmHg 86%
    03:00 +23°C° 0 mm 1 m/S 745 mmHg 87%
    04:00 +23°C° 0 mm 2 m/S 746 mmHg 88%
    05:00 +24°C° 0 mm 2 m/S 746 mmHg 85%
    06:00 +24°C° 0 mm 1 m/S 747 mmHg 81%
    07:00 +25°C° 0 mm 1 m/S 747 mmHg 78%
    08:00 +28°C° 0 mm 1 m/S 747 mmHg 66%
    09:00 +31°C° 0 mm 1 m/S 747 mmHg 55%
    10:00 +34°C° 0 mm 1 m/S 747 mmHg 44%
    11:00 +34°C° 0 mm 1 m/S 746 mmHg 44%
    12:00 +35°C° 0 mm 2 m/S 745 mmHg 43%
    13:00 +35°C° 0 mm 3 m/S 745 mmHg 43%
    14:00 +34°C° 0 mm 3 m/S 744 mmHg 47%
    15:00 +34°C° 0 mm 3 m/S 743 mmHg 50%
    16:00 +33°C° 0 mm 3 m/S 743 mmHg 53%
    17:00 +30°C° 0 mm 3 m/S 743 mmHg 61%
    18:00 +28°C° 0 mm 3 m/S 743 mmHg 68%
    19:00 +27°C° 0 mm 2 m/S 744 mmHg 76%
    20:00 +26°C° 0 mm 2 m/S 744 mmHg 79%
    21:00 +26°C° 0 mm 3 m/S 745 mmHg 82%
    22:00 +25°C° 0 mm 3 m/S 745 mmHg 85%
    23:00 +25°C° 0 mm 2 m/S 745 mmHg 86%
    Mehr zeigen